Regional Weather Roundup
Issued by NWS

Home | Current Version | Previous Version | Graphics & Text | Print | Product List | Glossary On
Versions: 1 2 3 4 5 6 7 8 9 10 11 12 13 14 15 16 17 18 19 20 21 22 23 24 25 26 27 28 29 30 31 32 33 34 35 36 37 38 39 40 41 42 43 44 45 46 47 48 49 50
000
ASUS44 KMEG 180610
RWRTN
TENNESSEE HOURLY STATE WEATHER ROUNDUP
NATIONAL WEATHER SERVICE MEMPHIS TN
1200 AM CST WED JAN 18 2017

TNZ002-004-019-021-049-052-054-088>092-180700-
WEST TENNESSEE

CITY           SKY/WX    TMP DP  RH WIND       PRES   REMARKS
MEMPHIS INTL   CLOUDY    48  42  80 N7        30.16F
NWS MEMPHIS      N/A     47 N/A N/A MISG        N/A
JACKSON        CLOUDY    46  42  86 N6        30.17F
DYERSBURG      CLOUDY    43  37  81 CALM      30.17F
UNION CITY     CLOUDY    45  45 100 CALM      30.16F
PARIS          CLOUDY    41  39  93 CALM      30.16F
HUNTINGDON     CLOUDY    43  41  93 CALM      30.15F
$$

TNZ008-025-027-028-033-062-065-066-180700-
NORTH MIDDLE TENNESSEE

CITY           SKY/WX    TMP DP  RH WIND       PRES   REMARKS
NASHVILLE      CLOUDY    51  43  74 NW5       30.14F
PORTLAND       CLOUDY    46  43  87 VRB6      30.14F
CLARKSVILLE    CLOUDY    45  39  79 NW8       30.17S
SMYRNA         CLOUDY    51  46  83 W6        30.15F
GALLATIN       CLOUDY    50  45  81 NW8       30.17S
CROSSVILLE     CLOUDY    51  49  92 NW8       30.11F
$$

TNZ061-075-076-078-094-096-097-180700-
SOUTH MIDDLE TENNESSEE

CITY           SKY/WX    TMP DP  RH WIND       PRES   REMARKS
FAYETTEVILLE   CLOUDY    57  52  82 CALM      30.12F
TULLAHOMA      CLOUDY    54  52  94 NW7       30.13F
WINCHESTER     CLOUDY    57  52  82 VRB3      30.12F
MCMINNVILLE    CLOUDY    54  52  94 NW7       30.13F
COLUMBIA       CLOUDY    48  48 100 CALM      30.14S
SHELBYVILLE    CLOUDY    54  48  82 NW7       30.14F
$$

TNZ017-018-042-046-047-180700-
NORTHEAST TENNESSEE

CITY           SKY/WX    TMP DP  RH WIND       PRES   REMARKS
TRI CITIES     HVY RAIN  60  58  92 W9        30.01S FOG
ELIZABETHTON   CLOUDY    63  59  88 W8        29.99F
$$

TNZ012-013-036-069-073-074-180700-
CENTRAL EAST TENNESSEE

CITY           SKY/WX    TMP DP  RH WIND       PRES   REMARKS
KNOXVILLE      LGT RAIN  60  56  86 NW13      30.06R
OAK RIDGE      CLOUDY    59  52  77 VRB6      30.08S
GATLINBURG     CLOUDY    64  55  72 W15       30.04R
MORRISTOWN     MOCLDY    59  59 100 NW9       30.04R
JACKSBORO      CLOUDY    59  46  63 CALM      30.10S
$$

TNZ083-085-099-180700-
SOUTHEAST TENNESSEE

CITY           SKY/WX    TMP DP  RH WIND       PRES   REMARKS
CHATTANOOGA    CLOUDY    66  57  72 SW9       30.09F
$$

SKY/WX REPORTED AS FAIR MEANS FEW OR NO CLOUDS BELOW
12 THOUSAND FEET.





USA.gov is the U.S. government's official web portal to all federal, state and local government web resources and services.